Location: Niedergestelen
(46.3129°N, 7.7822°E)
Time: 06:54:14
(UTC+00:00)

deb Kosmos-1275 - Visible Passes

Search period start: 21 June 2021 00:00
Search period end: 01 July 2021 00:00
Orbit: 819 x 846 km, 83.0° (Epoch: 20 June)

Date Brightness Start Highest point End Pass type
(mag) Time Alt. Az. Time Alt. Az. Time Alt. Az.
21 Jun ? 20:21:54 10° N 20:27:32 89° WSW 20:33:05 10° S visible
21 Jun ? 22:06:32 10° NW 22:08:57 13° WNW 22:11:22 10° WSW visible
22 Jun ? 20:04:39 10° N 20:10:16 77° E 20:15:49 10° SSE visible
22 Jun ? 21:48:37 10° NW 21:51:51 16° W 21:55:05 10° WSW visible
23 Jun ? 21:30:54 10° NW 21:34:45 19° W 21:38:34 10° SW visible
24 Jun ? 21:13:18 10° NNW 21:17:37 23° W 21:21:53 10° SW visible
25 Jun ? 20:55:47 10° NNW 21:00:27 28° W 21:05:05 10° SW visible
26 Jun ? 20:38:20 10° NNW 20:43:17 34° W 20:48:12 10° SSW visible
27 Jun ? 20:20:55 10° NNW 20:26:06 41° W 20:31:14 10° SSW visible
28 Jun ? 20:03:32 10° NNW 20:08:54 50° W 20:14:11 10° SSW visible
30 Jun ? 21:15:17 10° WNW 21:15:40 10° WNW 21:16:04 10° W visible
